Regional Weather Roundup
Issued by NWS Cleveland, OH

Home | Current Version | Previous Version | Text Only | Print | Product List | Glossary On
Versions: 1 2 3 4 5 6 7 8 9 10 11 12 13 14 15 16 17 18 19 20 21 22 23 24 25 26 27 28 29 30 31 32 33 34 35 36 37 38 39 40 41 42 43 44 45 46 47 48 49 50
000
ASUS41 KCLE 070010
RWRCLE
OHIO REGIONAL WEATHER ROUNDUP
NATIONAL WEATHER SERVICE CLEVELAND, OH
800 PM EDT MON JUL 06 2015

NOTE: "FAIR" INDICATES FEW OR NO CLOUDS BELOW 12,000 FEET WITH NO
SIGNIFICANT WEATHER AND/OR OBSTRUCTIONS TO VISIBILITY.

OHZ001>008-015>018-024>027-034-035-043-044-070100-
   NORTHWEST OHIO

CITY           SKY/WX    TMP DP  RH WIND       PRES   REMARKS
DEFIANCE       MOSUNNY   82  65  56 S6        29.95S
FINDLAY        SUNNY     79  66  64 S5        29.97F
TOLEDO EXPRESS SUNNY     79  64  60 S5        29.95S
TOLEDO EXEC    SUNNY     80  63  55 S7        29.96F
LIMA           SUNNY     80  64  58 S7        29.99S
$$

OHZ009>014-019>023-028>033-038-089-070100-
   NORTHEAST OHIO

CITY           SKY/WX    TMP DP  RH WIND       PRES   REMARKS
CLE-HOPKINS    PTCLDY    80  63  55 NE3       29.99F
CLE-LAKEFRONT  CLEAR     77  64  64 NE5       29.96F
CUY CO. ARPT   PTCLDY    81  63  54 NE6       30.00F
LORAIN-ELYRIA  MOSUNNY   79  65  62 CALM      29.99F
ASHTABULA      PTCLDY    74  68  81 E5        30.02S
AKRON-CANTON   MOCLDY    78  67  68 SE7       30.01F
WOOSTER        PTCLDY    79  67  66 CALM      30.00F
MANSFIELD      SUNNY     78  62  57 SW7       30.01F
YOUNGSTOWN     MOCLDY    76  69  79 NE3       30.02S
$$

OHZ042-051>053-060>062-070>072-077>081-070100-
  SOUTHWEST OHIO

CITY           SKY/WX    TMP DP  RH WIND       PRES   REMARKS
CINC-COVINGTON MOSUNNY   81  69  67 S6        30.01S HAZE
CINC-LUNKEN    MOSUNNY   80  69  69 S6        30.00S
HAMILTON       SUNNY     83  68  60 VRB3      30.00F
DAYTON         SUNNY     81  65  58 S9        30.01S
WRIGHT-PAT AFB SUNNY     80  65  60 SW6       30.00S
DAYTON GENERAL SUNNY     81  65  58 SW6       30.00F
WILMINGTON     MOSUNNY   78  65  63 S3        30.02S
$$

OHZ036-037-039>041-045>050-054>059-063>069-073>076-082>088-070100-
  CENTRAL AND SOUTHEAST OHIO

CITY           SKY/WX    TMP DP  RH WIND       PRES   REMARKS
COLUMBUS       SUNNY     80  60  50 S9        30.00F
OSU AIRPORT    SUNNY     80  61  52 SW8       30.01S
BOLTON FIELD   SUNNY     77  66  68 SW5       30.02S
RICKENBACK AFB SUNNY     79  64  60 SW5       30.01S
NEWARK         PTCLDY    80  63  55 SW7       30.01S
MARION         SUNNY     79  60  52 SW7       30.00F
LANCASTER      CLEAR     78  64  61 CALM      30.02S
ZANESVILLE     NOT AVBL
NEW PHILLY     MOCLDY    71  69  93 CALM      30.01F
$$


USA.gov is the U.S. government's official web portal to all federal, state and local government web resources and services.